RH
84 98 100 100 100 100 100 100 100 94 98 86 81 80 91 100 100 100 96 100 100 100 86 66 56 100 100 98 84 52 44 48 36 37 95 84 62 51 64 39 25 24 24 26 30
86 85 100 100 100 100 100 99 91 87 88 94 88 83 65 91 100 100 97 100 98 100 100 100 100 100 100 100 80 53 46 51 49 49 67 89 84 56 48 42 40 22 20 22 30
74 74 98 99 96 100 100 91 69 86 94 87 90 99 84 100 100 95 100 100 100 100 100 100 100 100 100 98 82 50 50 77 83 56 96 100 88 72 50 43 36 34 25 21 26
76 69 71 88 89 89 95 83 72 77 97 100 100 100 97 99 100 98 100 100 100 97 80 85 100 100 100 89 81 57 57 80 78 62 100 100 99 73 64 54 56 42 72 24 23
76 63 58 80 86 77 78 79 70 81 83 94 96 100 100 90 100 100 100 100 100 100 100 90 98 100 94 87 72 97 72 80 73 58 98 89 92 66 89 80 45 53 81 60 54
64 66 66 83 71 73 73 80 89 77 95 81 100 98 96 82 100 79 97 100 100 100 100 100 100 100 95 95 92 100 77 64 63 66 74 61 64 62 95 96 84 79 92 99 100
77 79 73 97 74 72 66 100 100 77 88 80 88 100 100 100 100 100 100 100 100 100 100 100 100 100 100 100 100 100 75 51 90 100 83 56 58 66 60 68 88 62 41 67 100
80 82 71 75 72 83 62 85 100 68 82 73 88 100 93 100 100 100 100 100 100 100 100 100 100 100 100 100 100 100 69 67 100 95 66 48 59 87 74 95 100 73 62 41 97
100 100 99 81 83 82 72 71 76 77 75 86 76 87 87 100 100 100 100 100 100 100 100 90 84 99 100 100 100 100 76 64 95 78 96 58 38 80 74 96 99 87 78 62 46
100 90 100 77 80 71 73 70 65 78 61 94 92 100 91 100 100 100 100 100 100 100 100 98 80 92 80 96 100 100 94 72 55 68 66 94 45 47 41 54 71 66 64 80 69
100 100 82 100 87 92 76 57 66 94 58 97 100 100 100 82 84 100 100 100 100 100 100 100 79 68 74 98 100 100 100 85 64 58 70 100 66 43 52 39 52 76 46 76 74
84 98 100 100 100 99 80 76 61 82 74 75 92 100 100 86 77 98 100 99 94 99 100 100 63 51 86 90 90 93 100 100 80 100 100 91 74 52 59 45 42 54 48 58 76
100 97 97 96 80 100 96 94 92 73 85 59 95 100 100 100 90 82 100 100 100 100 100 100 98 80 57 73 73 90 100 100 100 100 100 100 87 68 72 76 41 60 52 55 99
100 96 100 100 86 100 100 100 97 77 93 75 69 65 100 95 62 57 93 100 100 94 100 100 100 100 97 92 98 100 100 100 100 100 100 98 79 56 49 74 90 74 44 48 78
100 100 100 100 100 100 93 100 100 91 96 76 68 79 62 67 90 51 72 100 100 100 98 100 100 100 100 100 100 98 100 100 100 100 100 100 80 100 99 96 74 54 32 35 46
79 100 100 100 100 100 100 98 100 100 84 61 91 69 65 72 96 67 52 80 100 100 100 99 96 100 100 100 100 99 97 97 82 98 97 100 100 100 100 86 52 43 37 34 47
17 50 82 100 93 100 100 100 100 100 92 65 62 89 83 91 80 100 66 63 75 100 100 100 76 79 100 100 100 100 98 96 89 89 88 96 85 81 50 40 51 55 55 46 40
8 11 20 64 93 99 100 100 100 86 82 98 99 98 100 99 99 82 100 66 58 98 98 100 75 63 62 100 100 100 100 97 94 89 79 64 42 64 99 87 75 78 66 60 55
6 6 11 16 50 95 100 100 100 88 90 98 86 65 100 99 100 88 68 71 57 88 100 100 100 100 94 83 100 100 90 98 100 87 64 57 38 49 100 100 100 90 86 67 64
6 6 7 11 18 40 77 80 100 100 100 100 99 77 67 97 100 82 62 52 68 64 98 100 100 90 100 100 75 84 100 87 71 84 98 64 55 38 38 48 99 100 95 89 74
4 5 10 9 9 11 14 44 71 100 100 100 100 100 100 86 94 100 91 74 73 93 97 100 100 100 100 100 100 100 86 75 67 66 47 58 75 64 60 51 48 43 33 65 100
3 5 6 6 6 6 6 11 34 52 70 100 100 100 100 100 100 100 95 89 84 88 100 99 100 100 100 100 100 100 100 100 72 41 48 46 41 36 38 48 73 57 31 65 100
3 4 4 4 3 4 6 8 10 10 21 48 76 100 100 100 100 100 100 100 100 100 63 82 89 78 100 100 100 100 100 100 71 100 60 55 43 50 60 66 70 72 59 86 100
3 3 3 3 3 2 3 5 7 9 10 12 23 44 77 100 100 100 100 100 100 100 100 100 98 81 73 100 100 100 100 100 100 93 100 96 71 62 61 78 80 90 100 43 32
3 3 3 3 4 4 3 4 4 5 8 11 9 12 25 38 55 100 100 100 100 100 100 100 100 100 98 100 100 100 100 100 100 100 100 97 99 100 94 100 100 100 100 90 88
6 6 7 12 8 5 4 3 4 5 5 6 8 10 12 14 18 36 89 100 100 100 100 100 100 100 100 92 98 100 79 96 100 100 100 100 100 100 88 100 100 100 93 84 73
13 8 6 13 11 4 9 6 4 5 4 4 4 7 8 11 20 34 47 92 100 98 100 100 100 100 100 100 100 100 98 79 93 95 92 100 100 100 97 80 90 100 87 81 97
Wind_Speed
89 94 94 95 91 91 91 88 89 86 86 85 81 68 57 53 56 61 64 54 55 54 53 52 43 50 51 49 45 45 41 41 28 23 27 26 35 37 34 30 24 24 23 24 24
90 89 88 94 96 95 96 94 92 89 85 75 74 71 69 58 62 65 63 55 58 56 49 47 49 54 57 52 45 46 42 41 30 27 30 26 27 32 35 33 27 26 24 24 24
84 84 87 87 87 90 89 91 90 82 80 71 70 73 68 61 64 70 61 60 60 60 57 60 60 59 59 55 49 45 44 38 34 30 29 27 30 32 35 29 21 22 25 23 24
84 85 84 86 87 88 87 85 82 80 74 72 73 72 71 66 66 68 69 66 68 62 63 64 64 61 60 57 50 43 41 37 36 30 28 30 31 30 36 30 21 21 24 25 24
90 89 88 86 86 88 84 84 81 80 80 75 75 74 74 70 69 74 75 72 72 69 69 67 67 62 61 57 49 45 43 41 37 30 34 34 32 27 34 30 28 19 25 28 28
92 90 89 88 84 83 82 82 81 82 79 82 78 79 76 65 73 77 75 76 77 74 74 72 74 65 63 58 50 46 43 43 36 31 35 37 37 34 39 33 31 26 23 32 35
94 92 89 87 84 83 82 81 83 80 83 81 79 82 79 73 79 82 75 79 80 77 77 74 75 65 59 54 53 48 46 44 45 40 34 36 35 37 41 34 34 34 34 26 31
96 96 92 91 90 88 84 83 87 84 84 83 80 78 71 72 82 83 84 76 76 76 76 73 74 67 60 55 53 48 44 50 46 39 37 31 29 41 41 36 33 36 33 34 28
106 103 99 94 92 90 90 87 86 84 85 86 84 80 69 69 70 77 80 75 74 73 73 73 70 71 70 64 59 50 51 50 45 42 40 36 32 45 41 42 42 37 35 33 38
114 108 104 99 92 91 90 87 87 86 85 91 87 81 71 68 74 77 78 72 71 71 68 69 65 65 63 57 52 59 51 49 42 52 43 44 38 44 44 41 39 40 44 35 34
112 113 108 106 97 97 94 90 93 94 90 94 85 80 80 78 76 75 79 79 78 73 65 67 67 53 58 58 56 55 47 50 52 55 48 47 44 43 44 41 42 46 40 39 32
123 118 110 108 105 105 95 97 98 98 94 92 87 84 82 76 74 71 75 75 69 68 68 69 58 56 62 60 56 51 46 47 51 49 49 47 43 42 48 47 43 44 43 40 40
129 118 120 122 113 106 105 97 106 102 103 93 89 86 85 86 73 74 72 76 71 68 64 59 51 60 61 57 53 48 45 53 54 58 52 49 44 44 45 52 43 43 45 42 38
139 129 133 136 116 107 108 110 107 107 109 105 94 85 82 82 70 73 72 75 75 71 68 61 55 54 56 52 51 44 52 53 55 60 50 50 40 42 41 42 47 48 48 46 39
145 140 136 133 125 121 121 119 119 113 121 106 96 90 85 84 74 75 80 78 73 75 75 57 58 61 56 52 61 48 58 57 58 56 51 48 50 49 55 53 56 54 49 46 41
149 153 149 139 134 131 126 126 130 132 127 106 105 95 94 79 80 83 83 79 79 82 73 67 67 63 54 60 57 59 59 53 54 61 58 62 68 56 54 57 50 49 47 39 40
133 151 157 150 137 141 138 138 140 144 126 112 97 101 94 92 87 94 88 88 77 79 69 71 66 65 63 60 60 61 63 60 55 53 41 58 61 48 51 47 47 48 52 44 44
117 127 137 152 150 151 148 144 146 133 127 111 113 105 109 101 101 97 99 91 83 73 72 76 73 64 63 63 65 64 70 67 64 59 53 52 46 43 48 51 51 51 50 47 46
98 106 120 128 156 156 155 155 148 138 131 123 115 116 116 110 108 104 101 93 85 80 79 80 76 72 74 73 75 72 74 64 69 65 62 56 35 38 43 47 51 54 53 47 49
90 92 104 120 131 153 165 156 154 146 133 131 129 125 117 117 114 113 107 93 88 85 84 83 85 78 80 83 82 79 75 77 71 62 60 58 60 47 42 42 50 51 53 52 52
81 85 100 105 115 127 137 146 150 152 145 140 143 136 134 120 117 119 118 99 97 94 94 91 93 86 87 85 77 83 80 79 76 72 65 63 65 64 52 54 58 57 58 58 56
74 82 91 99 103 105 106 116 144 161 155 160 157 154 140 134 126 129 123 114 101 100 102 95 99 94 89 92 87 83 82 81 79 71 68 67 58 66 68 65 61 61 63 59 58
66 73 80 91 86 91 91 100 114 125 142 161 162 155 149 141 142 131 132 115 111 115 105 104 107 98 102 101 99 87 85 81 75 78 69 76 63 72 70 68 63 60 54 58 59
64 66 69 77 82 81 83 88 94 104 117 127 133 150 159 150 150 143 140 129 120 116 112 118 116 114 105 94 94 93 93 94 90 86 71 77 79 80 78 75 66 62 61 61 63
51 57 64 62 66 76 76 79 83 91 96 113 116 125 139 142 148 154 147 139 133 127 124 128 125 119 110 110 107 104 101 100 100 90 95 85 91 88 85 74 63 63 61 62 63
46 46 46 45 62 66 71 63 73 83 93 99 103 103 111 128 132 136 151 159 144 137 135 132 130 127 120 115 114 113 109 106 102 97 97 96 92 89 89 82 79 75 76 73 76
43 31 38 43 55 62 59 73 71 87 87 93 95 103 111 107 118 128 131 135 142 145 141 142 134 132 128 121 121 126 114 109 106 113 107 103 85 98 95 85 70 67 70 73 76
Wind_Direction
254 254 254 255 257 259 260 263 266 266 267 266 267 259 250 254 259 262 258 256 258 261 267 270 267 263 270 275 286 294 285 274 274 269 276 272 284 277 282 285 281 286 293 301 304
252 252 253 253 256 258 258 259 262 263 262 262 260 255 252 246 252 256 261 259 261 260 257 256 257 265 273 277 285 286 281 271 274 276 271 271 280 284 278 281 283 275 286 299 307
251 251 250 252 253 253 254 258 259 256 256 256 258 252 249 243 248 252 258 260 258 248 250 258 259 265 272 276 280 283 276 268 268 272 271 269 284 281 281 279 269 282 291 295 307
253 251 252 253 252 250 254 254 256 254 254 252 254 251 248 241 247 254 254 255 259 257 253 257 262 264 268 272 275 280 276 263 263 270 262 270 272 279 272 277 269 278 289 291 302
252 254 253 251 252 252 251 252 251 251 249 249 249 248 250 249 247 251 255 252 256 260 258 256 258 260 264 271 275 274 278 260 264 258 256 264 265 270 271 269 273 277 278 289 294
253 253 252 251 251 250 251 249 247 249 248 248 246 248 250 251 249 248 251 258 257 260 261 257 253 256 262 267 269 270 273 256 261 260 261 263 267 270 263 272 269 268 281 287 286
251 251 249 249 250 251 251 246 246 249 247 247 246 247 249 250 251 255 253 257 258 260 260 256 251 253 258 257 261 269 270 257 257 260 262 261 271 268 260 267 267 267 272 274 288
251 250 248 249 252 252 249 246 248 251 246 246 245 247 244 247 249 251 255 254 255 255 255 254 250 251 251 254 263 265 265 251 256 262 258 256 270 262 258 257 266 271 274 272 286
250 250 249 248 252 249 248 247 248 248 245 245 244 246 242 245 250 251 251 252 249 251 253 254 251 249 251 257 262 260 258 251 252 255 259 257 258 264 261 259 268 269 279 278 273
246 247 246 247 247 249 247 247 245 245 245 246 240 241 242 238 243 246 249 246 248 251 252 254 250 250 252 259 255 254 254 254 249 256 250 256 257 271 267 266 269 279 281 271 270
243 245 244 244 248 246 246 245 244 245 244 245 240 240 240 235 237 244 247 245 245 247 246 248 248 245 252 256 248 254 258 257 245 255 251 250 254 265 265 270 276 281 282 269 267
244 244 242 245 245 243 244 244 247 244 243 244 239 241 241 238 234 241 248 251 249 246 241 242 246 244 248 247 247 249 256 258 251 252 247 255 257 263 269 272 276 280 280 275 272
243 244 243 244 244 242 244 243 246 244 241 240 241 237 240 239 232 235 246 248 244 237 244 246 244 244 246 250 252 253 256 253 244 248 250 253 256 265 269 269 269 277 276 272 272
241 241 240 245 247 240 240 243 245 245 243 237 238 238 238 242 234 238 237 244 246 239 241 243 243 243 245 246 247 241 248 248 250 246 248 255 256 262 261 267 274 276 276 272 270
238 239 240 241 243 240 243 239 242 244 243 234 236 236 238 243 241 237 241 239 243 246 239 238 234 236 236 237 239 231 239 240 239 242 241 247 245 256 267 270 274 271 273 272 269
239 238 240 238 239 242 239 241 239 241 242 238 236 236 239 240 242 239 238 236 239 242 241 237 238 243 243 245 249 243 238 244 247 247 248 255 261 259 268 267 267 274 275 268 266
237 238 238 239 237 238 239 243 238 239 241 238 237 239 240 240 238 241 241 240 237 242 244 248 242 238 243 243 244 249 248 246 248 248 248 250 255 259 260 265 268 271 272 272 265
238 238 238 238 239 235 235 239 238 241 241 240 240 237 238 239 239 240 238 240 236 239 243 245 250 250 243 247 247 248 249 246 246 246 246 244 256 261 262 269 275 271 269 272 267
240 239 236 237 235 235 238 235 240 243 243 242 240 240 236 238 238 239 241 241 236 236 241 242 241 243 246 242 244 249 250 251 246 243 248 252 260 262 267 267 269 270 269 269 265
242 240 237 237 235 235 237 236 239 242 239 241 241 241 237 239 238 241 242 238 239 238 239 240 240 242 244 246 246 250 253 251 249 246 251 257 257 258 265 271 274 277 277 272 267
241 240 239 239 237 237 238 238 238 240 241 238 241 240 244 240 238 239 240 239 238 240 240 239 238 237 240 246 253 251 252 257 254 251 256 255 253 256 266 277 280 280 282 274 265
239 239 240 241 240 240 238 238 239 239 240 238 240 240 242 243 238 240 241 240 241 240 240 241 241 236 241 244 246 249 247 249 255 262 253 249 253 262 265 276 277 276 283 271 264
242 238 238 244 243 243 240 237 236 238 241 239 239 240 240 238 240 239 238 238 235 239 242 241 242 238 240 240 241 249 247 256 257 254 255 255 263 269 266 272 272 271 268 264 260
245 243 242 242 245 243 240 237 238 238 239 240 239 238 238 238 238 236 238 237 237 236 240 243 241 241 239 240 248 246 251 255 256 252 249 253 261 268 272 273 268 263 261 269 269
255 250 249 251 247 248 244 239 237 236 236 238 236 236 238 240 239 238 238 238 240 240 237 241 242 240 242 242 244 246 248 252 254 259 254 262 264 267 266 265 259 258 257 264 265
265 259 251 240 241 240 241 238 233 234 233 235 235 233 234 236 238 238 237 238 238 240 237 239 242 242 242 242 245 246 248 253 253 256 259 263 266 264 266 265 260 262 260 261 268
264 253 235 221 232 232 229 231 228 229 231 232 230 227 228 230 231 235 236 233 234 235 236 235 238 239 242 244 249 246 245 252 254 257 260 260 258 256 263 268 259 258 259 263 263